DeKalb, IL

10:31 AM CDT on July 20, 2017 (GMT -0500)
De Kalb Taylor Municipal

Weather History for KDKB - October, 2013

Change the Weather History Date:

Monday, October 7, 2013

  Actual Average (KARR) Record (KARR)
Temperature  
Mean Temperature 55 °F -  
Max Temperature 69 °F 65 °F 89 °F (2007)
Min Temperature 41 °F 39 °F 24 °F (2001)
Degree Days  
Heating Degree Days 10    
Growing Degree Days 5 (Base 50)    
Moisture  
Dew Point 46 °F    
Average Humidity 74    
Maximum Humidity 92    
Minimum Humidity 42    
Precipitation  
Precipitation 0.00 in - - ()
Sea Level Pressure  
Sea Level Pressure 29.93 in    
Wind  
Wind Speed 8 mph (West)    
Max Wind Speed 17 mph    
Max Gust Speed 23 mph    
Visibility 9 miles    
Events Rain    
Averages and records for this station are not official NWS values.
T = Trace of Precipitation, MM = Missing Value Source: NWS Daily Summary

Daily Weather History Graph

Daily Weather History Graph

Search for Another Location

Airport or City:

Trip Planner

Search our weather history database for the weather conditions in past years. The results will help you decide how hot, cold, wet, or windy it might be!

Date:

Astronomy

Oct. 07, 2013 Rise Set
Actual Time 6:58 AM CDT 6:25 PM CDT
Civil Twilight 6:30 AM CDT 6:53 PM CDT
Nautical Twilight 5:58 AM CDT 7:25 PM CDT
Astronomical Twilight 5:25 AM CDT 7:58 PM CDT
Moon 9:51 AM CDT (10/7) 8:07 PM CDT (10/7)
Length of Visible Light 12h 23m
Length of Day
11h 27m
Waxing Crescent, 9% of the Moon is Illuminated
Oct 7
Waxing Crescent
Oct 11
First Quarter
Oct 18
Full
Oct 26
Last Quarter
Nov 3
New

Hourly Weather History & Observations

Time (CDT) Temp. Windchill Dew Point Humidity Pressure Visibility Wind Dir Wind Speed Gust Speed Precip Events Conditions
12:15 AM 41.4 °F 38.4 °F 39.0 °F 91% 29.78 in 7.0 mi SW 4.6 mph - N/A   Scattered Clouds
12:35 AM 42.6 °F 39.9 °F 40.1 °F 91% 29.78 in 7.0 mi SW 4.6 mph - N/A   Mostly Cloudy
12:55 AM 43.9 °F 40.5 °F 41.5 °F 91% 29.79 in 10.0 mi WSW 5.8 mph - N/A   Overcast
1:15 AM 44.1 °F 40.8 °F 41.7 °F 91% 29.79 in 10.0 mi WSW 5.8 mph - N/A   Overcast
1:35 AM 44.8 °F 40.4 °F 42.3 °F 91% 29.79 in 10.0 mi West 8.1 mph - N/A   Overcast
1:55 AM 45.0 °F 40.1 °F 42.6 °F 91% 29.79 in 10.0 mi WSW 9.2 mph - N/A   Overcast
2:15 AM 44.8 °F 41.0 °F 42.4 °F 91% 29.79 in 10.0 mi WSW 6.9 mph - N/A   Overcast
2:35 AM 44.8 °F 39.9 °F 42.3 °F 91% 29.79 in 10.0 mi West 9.2 mph - N/A   Overcast
2:55 AM 44.8 °F 39.4 °F 42.4 °F 91% 29.81 in 10.0 mi West 10.4 mph - N/A   Overcast
3:15 AM 45.1 °F 40.8 °F 42.8 °F 91% 29.80 in 10.0 mi West 8.1 mph - N/A   Overcast
3:35 AM 45.1 °F 40.8 °F 42.8 °F 91% 29.80 in 10.0 mi WSW 8.1 mph - N/A   Overcast
3:55 AM 45.1 °F 40.8 °F 42.8 °F 91% 29.80 in 10.0 mi WSW 8.1 mph - N/A   Overcast
4:15 AM 45.1 °F 40.8 °F 42.8 °F 91% 29.80 in 10.0 mi WSW 8.1 mph - N/A   Overcast
4:55 AM 44.6 °F 39.7 °F 41.9 °F 90% 29.82 in 10.0 mi WSW 9.2 mph - N/A   Overcast
5:15 AM 44.6 °F 39.7 °F 41.9 °F 90% 29.82 in 10.0 mi WSW 9.2 mph - N/A   Mostly Cloudy
5:55 AM 45.0 °F 39.7 °F 42.8 °F 92% 29.83 in 10.0 mi West 10.4 mph - N/A   Overcast
6:15 AM 45.5 °F 40.8 °F 43.2 °F 92% 29.84 in 1.8 mi West 9.2 mph - N/A Rain Light Rain
6:35 AM 45.9 °F 41.2 °F 43.7 °F 92% 29.84 in 2.0 mi West 9.2 mph - N/A Rain Light Rain
6:55 AM 46.4 °F 41.5 °F 44.1 °F 92% 29.85 in 4.0 mi West 10.4 mph - N/A   Light Drizzle
7:15 AM 47.3 °F - 45.0 °F 92% 29.85 in 4.0 mi West 11.5 mph 17.3 mph N/A   Overcast
7:35 AM 47.5 °F - 45.1 °F 92% 29.86 in 4.0 mi West 11.5 mph 17.3 mph N/A   Overcast
7:55 AM 48.2 °F - 45.7 °F 91% 29.87 in 7.0 mi West 12.7 mph 17.3 mph N/A   Overcast
8:15 AM 49.1 °F - 46.6 °F 91% 29.88 in 10.0 mi West 10.4 mph - N/A   Overcast
8:35 AM 49.8 °F - 47.3 °F 91% 29.89 in 10.0 mi West 11.5 mph 16.1 mph N/A   Overcast
8:55 AM 50.7 °F - 48.0 °F 90% 29.89 in 10.0 mi WNW 11.5 mph 18.4 mph N/A   Mostly Cloudy
9:15 AM 52.7 °F - 49.5 °F 89% 29.90 in 10.0 mi WNW 15.0 mph - N/A   Scattered Clouds
9:35 AM 52.9 °F - 48.4 °F 85% 29.91 in 10.0 mi NW 13.8 mph 17.3 mph N/A   Mostly Cloudy
9:55 AM 54.5 °F - 49.1 °F 82% 29.93 in 10.0 mi WNW 10.4 mph 16.1 mph N/A   Scattered Clouds
10:15 AM 55.4 °F - 49.3 °F 80% 29.93 in 10.0 mi WNW 12.7 mph 18.4 mph N/A   Scattered Clouds
10:35 AM 56.7 °F - 49.6 °F 77% 29.94 in 10.0 mi WNW 11.5 mph - N/A   Clear
10:55 AM 57.7 °F - 49.8 °F 75% 29.95 in 10.0 mi WNW 12.7 mph - N/A   Clear
11:15 AM 58.5 °F - 49.5 °F 72% 29.96 in 10.0 mi WNW 11.5 mph 18.4 mph N/A   Clear
11:35 AM 59.2 °F - 49.3 °F 70% 29.96 in 10.0 mi WNW 15.0 mph 19.6 mph N/A   Clear
11:55 AM 60.4 °F - 48.7 °F 65% 29.97 in 10.0 mi NW 12.7 mph - N/A   Clear
12:15 PM 61.9 °F - 48.4 °F 61% 29.97 in 10.0 mi NW 10.4 mph - N/A   Clear
12:35 PM 63.0 °F - 47.8 °F 58% 29.97 in 10.0 mi WNW 9.2 mph - N/A   Clear
12:55 PM 63.5 °F - 47.1 °F 55% 29.97 in 10.0 mi WNW 12.7 mph 17.3 mph N/A   Clear
1:35 PM 64.9 °F - 47.7 °F 54% 29.97 in 10.0 mi WNW 9.2 mph 21.9 mph N/A   Clear
1:55 PM 65.7 °F - 47.8 °F 53% 29.96 in 10.0 mi West 11.5 mph 20.7 mph N/A   Clear
2:35 PM 67.1 °F - 48.2 °F 51% 29.97 in 10.0 mi WSW 9.2 mph - N/A   Clear
2:55 PM 67.8 °F - 48.2 °F 49% 29.97 in 10.0 mi West 12.7 mph - N/A   Scattered Clouds
3:15 PM 68.2 °F - 46.6 °F 46% 29.96 in 10.0 mi NW 5.8 mph - N/A   Scattered Clouds
3:35 PM 69.1 °F - 45.3 °F 42% 29.96 in 10.0 mi WNW 15.0 mph 19.6 mph N/A   Scattered Clouds
3:55 PM 69.3 °F - 45.5 °F 42% 29.96 in 10.0 mi WNW 9.2 mph 20.7 mph N/A   Clear
4:15 PM 69.3 °F - 45.1 °F 42% 29.97 in 10.0 mi West 17.3 mph 23.0 mph N/A   Clear
4:35 PM 69.4 °F - 45.1 °F 42% 29.97 in 10.0 mi WNW 13.8 mph 18.4 mph N/A   Clear
4:55 PM 68.9 °F - 46.4 °F 44% 29.98 in 10.0 mi WNW 11.5 mph - N/A   Scattered Clouds
5:15 PM 67.3 °F - 45.5 °F 45% 29.98 in 10.0 mi WNW 6.9 mph - N/A   Scattered Clouds
5:35 PM 66.9 °F - 46.0 °F 47% 29.99 in 10.0 mi WNW 6.9 mph - N/A   Clear
5:55 PM 65.7 °F - 46.6 °F 50% 29.99 in 10.0 mi West 5.8 mph - N/A   Clear
6:15 PM 64.4 °F - 46.9 °F 53% 29.99 in 10.0 mi West 4.6 mph - N/A   Clear
6:35 PM 63.5 °F - 46.9 °F 55% 30.00 in 10.0 mi SW 3.5 mph - N/A   Clear
6:55 PM 61.9 °F - 47.3 °F 59% 30.01 in 10.0 mi SW 3.5 mph - N/A   Clear
7:15 PM 59.5 °F - 48.2 °F 66% 30.01 in 10.0 mi SSW 4.6 mph - N/A   Clear
7:35 PM 56.8 °F - 48.6 °F 74% 30.01 in 10.0 mi Calm Calm - N/A   Clear
8:15 PM 58.3 °F - 48.7 °F 71% 30.03 in 10.0 mi WSW 5.8 mph - N/A   Clear
8:35 PM 59.0 °F - 48.4 °F 68% 30.04 in 10.0 mi WSW 4.6 mph - N/A   Clear
8:55 PM 58.5 °F - 48.6 °F 70% 30.05 in 10.0 mi North 3.5 mph - N/A   Clear
9:15 PM 55.9 °F - 48.6 °F 76% 30.06 in 10.0 mi NNE 5.8 mph - N/A   Clear
9:35 PM 57.4 °F - 48.4 °F 72% 30.06 in 10.0 mi North 4.6 mph - N/A   Clear
9:55 PM 56.1 °F - 48.0 °F 74% 30.06 in 10.0 mi North 4.6 mph - N/A   Clear
10:15 PM 56.8 °F - 48.0 °F 72% 30.07 in 10.0 mi North 4.6 mph - N/A   Clear
10:35 PM 52.9 °F - 47.3 °F 81% 30.07 in 10.0 mi Calm Calm - N/A   Clear
10:55 PM 51.3 °F - 46.2 °F 83% 30.08 in 10.0 mi Calm Calm - N/A   Clear
11:15 PM 53.1 °F - 46.8 °F 79% 30.08 in 10.0 mi Calm Calm - N/A   Clear
11:35 PM 53.4 °F - 46.9 °F 79% 30.08 in 10.0 mi Calm Calm - N/A   Clear
11:55 PM 51.8 °F - 46.8 °F 83% 30.09 in 10.0 mi Calm Calm - N/A   Clear